EN

Hourly Weather Abakumovo

Today, 13 June, Sunday

Time Temperature Precipitation Wind Pressure Humidity
00:00 +13°C° 0 mm 1 mps 737 mmHg 97%
01:00 +13°C° 0 mm 1 mps 737 mmHg 97%
02:00 +13°C° 0 mm 1 mps 737 mmHg 97%
03:00 +13°C° 0 mm 1 mps 737 mmHg 97%
04:00 +14°C° 0 mm 1 mps 737 mmHg 96%
05:00 +14°C° 0 mm 1 mps 737 mmHg 95%
06:00 +16°C° 0 mm 1 mps 737 mmHg 86%
07:00 +18°C° 0 mm 2 mps 737 mmHg 76%
08:00 +20°C° 0 mm 2 mps 737 mmHg 67%
09:00 +21°C° 0 mm 2 mps 737 mmHg 58%
10:00 +24°C° 0 mm 2 mps 737 mmHg 50%
11:00 +25°C° 0 mm 2 mps 737 mmHg 42%
12:00 +25°C° 0 mm 2 mps 737 mmHg 44%
13:00 +25°C° 0 mm 2 mps 737 mmHg 45%
14:00 +25°C° 0 mm 2 mps 737 mmHg 47%
15:00 +24°C° 0 mm 1 mps 737 mmHg 50%
16:00 +24°C° 0 mm 1 mps 737 mmHg 54%
17:00 +23°C° 0 mm 1 mps 737 mmHg 57%
18:00 +22°C° 0 mm 1 mps 738 mmHg 60%
19:00 +21°C° 0 mm 1 mps 738 mmHg 64%
20:00 +20°C° 0 mm 1 mps 738 mmHg 67%
21:00 +20°C° 0 mm 1 mps 738 mmHg 68%
22:00 +19°C° 0 mm 1 mps 739 mmHg 69%
23:00 +19°C° 0 mm 1 mps 739 mmHg 70%

Tomorrow, 14 June, Monday

Time Temperature Precipitation Wind Pressure Humidity
00:00 +19°C° 0 mm 1 mps 739 mmHg 73%
01:00 +18°C° 0 mm 1 mps 739 mmHg 75%
02:00 +18°C° 0 mm 1 mps 740 mmHg 78%
03:00 +18°C° 0 mm 1 mps 740 mmHg 79%
04:00 +18°C° 0 mm 1 mps 740 mmHg 81%
05:00 +18°C° 0 mm 1 mps 741 mmHg 82%
06:00 +20°C° 0 mm 1 mps 741 mmHg 76%
07:00 +21°C° 0 mm 1 mps 742 mmHg 70%
08:00 +23°C° 0 mm 1 mps 742 mmHg 64%
09:00 +23°C° 0.3 mm 2 mps 743 mmHg 67%
10:00 +22°C° 0.3 mm 3 mps 743 mmHg 70%
11:00 +21°C° 0.3 mm 3 mps 743 mmHg 74%
12:00 +22°C° 0.2 mm 3 mps 743 mmHg 69%
13:00 +22°C° 0.2 mm 3 mps 744 mmHg 64%
14:00 +24°C° 0.2 mm 3 mps 744 mmHg 59%
15:00 +24°C° 0 mm 3 mps 744 mmHg 58%
16:00 +24°C° 0 mm 2 mps 744 mmHg 57%
17:00 +24°C° 0 mm 2 mps 744 mmHg 56%
18:00 +21°C° 0 mm 2 mps 744 mmHg 63%
19:00 +19°C° 0 mm 2 mps 744 mmHg 71%
20:00 +19°C° 0 mm 1 mps 744 mmHg 78%
21:00 +16°C° 0 mm 1 mps 744 mmHg 78%
22:00 +15°C° 0 mm 1 mps 744 mmHg 78%
23:00 +13°C° 0 mm 1 mps 744 mmHg 79%

Day after tomorrow, 15 June, Tuesday

Time Temperature Precipitation Wind Pressure Humidity
00:00 +13°C° 0 mm 1 mps 744 mmHg 78%
01:00 +12°C° 0 mm 1 mps 744 mmHg 77%
02:00 +11°C° 0 mm 0 mps 744 mmHg 76%
03:00 +12°C° 0 mm 0 mps 744 mmHg 75%
04:00 +13°C° 0 mm 0 mps 744 mmHg 74%
05:00 +14°C° 0 mm 0 mps 743 mmHg 73%
06:00 +18°C° 0 mm 1 mps 743 mmHg 68%
07:00 +20°C° 0 mm 1 mps 743 mmHg 63%
08:00 +21°C° 0 mm 2 mps 743 mmHg 58%
09:00 +23°C° 0 mm 2 mps 743 mmHg 54%
10:00 +24°C° 0 mm 3 mps 742 mmHg 50%
11:00 +25°C° 0 mm 3 mps 742 mmHg 46%
12:00 +25°C° 0 mm 3 mps 742 mmHg 45%
13:00 +25°C° 0 mm 3 mps 741 mmHg 43%
14:00 +26°C° 0 mm 3 mps 741 mmHg 42%
15:00 +25°C° 0 mm 3 mps 741 mmHg 44%
16:00 +25°C° 0 mm 3 mps 741 mmHg 47%
17:00 +24°C° 0 mm 3 mps 740 mmHg 49%
18:00 +21°C° 0 mm 2 mps 740 mmHg 56%
19:00 +19°C° 0 mm 2 mps 740 mmHg 64%
20:00 +17°C° 0 mm 2 mps 740 mmHg 71%
21:00 +16°C° 0 mm 2 mps 741 mmHg 77%
22:00 +15°C° 0 mm 2 mps 741 mmHg 84%
23:00 +14°C° 0 mm 2 mps 741 mmHg 90%

16 June, Wednesday

Time Temperature Precipitation Wind Pressure Humidity
00:00 +14°C° 0.5 mm 2 mps 741 mmHg 92%
01:00 +14°C° 0.5 mm 2 mps 741 mmHg 95%
02:00 +14°C° 0.5 mm 2 mps 741 mmHg 98%
03:00 +14°C° 0.1 mm 2 mps 742 mmHg 97%
04:00 +14°C° 0.1 mm 2 mps 742 mmHg 96%
05:00 +14°C° 0.1 mm 2 mps 742 mmHg 95%
06:00 +15°C° 0 mm 2 mps 743 mmHg 82%
07:00 +17°C° 0 mm 3 mps 743 mmHg 68%
08:00 +18°C° 0 mm 3 mps 743 mmHg 55%
09:00 +19°C° 0 mm 4 mps 744 mmHg 47%
10:00 +20°C° 0 mm 4 mps 744 mmHg 40%
11:00 +21°C° 0 mm 5 mps 744 mmHg 32%
12:00 +22°C° 0 mm 5 mps 744 mmHg 31%
13:00 +22°C° 0 mm 4 mps 745 mmHg 31%
14:00 +22°C° 0 mm 4 mps 745 mmHg 30%
15:00 +22°C° 0 mm 4 mps 745 mmHg 32%
16:00 +21°C° 0 mm 4 mps 746 mmHg 35%
17:00 +21°C° 0 mm 4 mps 746 mmHg 37%
18:00 +19°C° 0 mm 3 mps 746 mmHg 45%
19:00 +17°C° 0 mm 3 mps 747 mmHg 54%
20:00 +15°C° 0 mm 2 mps 747 mmHg 62%
21:00 +13°C° 0 mm 2 mps 748 mmHg 64%
22:00 +12°C° 0 mm 2 mps 748 mmHg 66%
23:00 +10°C° 0 mm 2 mps 749 mmHg 68%

17 June, Thursday

Time Temperature Precipitation Wind Pressure Humidity
00:00 +9°C° 0 mm 2 mps 749 mmHg 70%
01:00 +9°C° 0 mm 2 mps 749 mmHg 72%
02:00 +9°C° 0 mm 2 mps 750 mmHg 74%
03:00 +10°C° 0 mm 2 mps 750 mmHg 73%
04:00 +12°C° 0 mm 2 mps 750 mmHg 71%
05:00 +13°C° 0 mm 2 mps 751 mmHg 69%
06:00 +15°C° 0 mm 2 mps 751 mmHg 60%
07:00 +17°C° 0 mm 2 mps 751 mmHg 51%
08:00 +19°C° 0 mm 3 mps 752 mmHg 42%
09:00 +20°C° 0 mm 2 mps 752 mmHg 38%
10:00 +21°C° 0 mm 2 mps 752 mmHg 35%
11:00 +23°C° 0 mm 2 mps 752 mmHg 32%
12:00 +24°C° 0 mm 2 mps 752 mmHg 32%
13:00 +24°C° 0 mm 2 mps 752 mmHg 31%
14:00 +25°C° 0 mm 2 mps 752 mmHg 31%
15:00 +25°C° 0 mm 2 mps 752 mmHg 34%
16:00 +25°C° 0 mm 2 mps 752 mmHg 37%
17:00 +25°C° 0 mm 2 mps 752 mmHg 40%
18:00 +23°C° 0 mm 2 mps 752 mmHg 50%
19:00 +21°C° 0 mm 1 mps 752 mmHg 59%
20:00 +18°C° 0 mm 1 mps 752 mmHg 68%
21:00 +18°C° 0 mm 1 mps 752 mmHg 69%
22:00 +16°C° 0 mm 1 mps 752 mmHg 70%
23:00 +15°C° 0 mm 1 mps 752 mmHg 72%

18 June, Friday

Time Temperature Precipitation Wind Pressure Humidity
00:00 +14°C° 0 mm 1 mps 753 mmHg 72%
01:00 +14°C° 0 mm 1 mps 753 mmHg 73%
02:00 +13°C° 0 mm 1 mps 753 mmHg 74%
03:00 +14°C° 0 mm 1 mps 753 mmHg 73%
04:00 +15°C° 0 mm 1 mps 753 mmHg 71%
05:00 +16°C° 0 mm 1 mps 753 mmHg 70%
06:00 +18°C° 0 mm 2 mps 753 mmHg 62%
07:00 +20°C° 0 mm 2 mps 753 mmHg 55%
08:00 +23°C° 0 mm 2 mps 753 mmHg 47%
09:00 +24°C° 0 mm 2 mps 753 mmHg 44%
10:00 +26°C° 0 mm 3 mps 753 mmHg 41%
11:00 +27°C° 0 mm 3 mps 753 mmHg 37%
12:00 +27°C° 0 mm 3 mps 752 mmHg 36%
13:00 +28°C° 0 mm 3 mps 752 mmHg 35%
14:00 +28°C° 0 mm 3 mps 752 mmHg 34%
15:00 +28°C° 0 mm 3 mps 751 mmHg 37%
16:00 +28°C° 0 mm 3 mps 751 mmHg 39%
17:00 +28°C° 0 mm 2 mps 751 mmHg 42%
18:00 +25°C° 0 mm 2 mps 751 mmHg 51%
19:00 +23°C° 0 mm 2 mps 751 mmHg 61%
20:00 +20°C° 0 mm 2 mps 751 mmHg 71%
21:00 +19°C° 0 mm 2 mps 751 mmHg 72%
22:00 +18°C° 0 mm 2 mps 751 mmHg 73%
23:00 +16°C° 0 mm 2 mps 751 mmHg 75%
Show more